GW7303 Weather Reports


Display with metric or nautical units.
time (UTC)temp
F
wind
direction
speed
MPH
gust
MPH
rain 1hr
in
rain 24hr
in
rain mn
in
humidity
%
barometer
mb
20260507230026 59 89 2.0 5.0 0.00 0.15 0.03 76 1009.6
20260507224532 60 89 2.0 5.0 0.00 0.15 0.03 75 1009.4
20260507223027 60 77 2.0 5.0 0.00 0.15 0.03 75 1009.3
20260507221521 60 103 1.0 7.0 0.00 0.15 0.03 76 1009.1
20260507220003 60 139 1.0 7.0 0.00 0.15 0.03 75 1009.0
20260507214507 61 90 2.0 5.0 0.00 0.15 0.03 73 1008.9
20260507213012 61 179 1.0 6.0 0.00 0.15 0.03 73 1008.9
20260507211504 61 68 1.0 8.0 0.00 0.15 0.03 72 1008.9
20260507210005 61 101 1.0 6.0 0.00 0.15 0.03 74 1008.8
20260507204504 62 112 4.0 9.0 0.00 0.15 0.03 71 1008.8
20260507203010 63 332 2.0 9.0 0.00 0.15 0.03 69 1009.0
20260507201512 62 91 2.0 6.0 0.00 0.15 0.03 69 1009.1
20260507200017 63 89 2.0 7.0 0.00 0.15 0.03 72 1009.2
20260507194504 60 56 3.0 7.0 0.00 0.15 0.03 74 1009.3
20260507193007 59 57 2.0 5.0 0.00 0.15 0.03 76 1009.6
20260507191510 59 129 3.0 5.0 0.00 0.15 0.03 74 1009.9
20260507190013 59 229 2.0 6.0 0.00 0.15 0.03 74 1009.9
20260507184518 58 103 2.0 7.0 0.00 0.15 0.03 76 1010.1
20260507183010 58 73 2.0 7.0 0.00 0.15 0.03 79 1010.3
20260507181507 58 103 3.0 6.0 0.00 0.15 0.03 79 1010.4
20260507180021 56 72 3.0 6.0 0.00 0.15 0.03 79 1010.7
20260507174520 56 65 3.0 6.0 0.00 0.15 0.03 80 1010.8
20260507173030 55 72 2.0 5.0 0.02 0.15 0.03 84 1011.0
20260507171508 54 71 2.0 4.0 0.02 0.15 0.03 83 1011.4
20260507170008 53 112 1.0 4.0 0.02 0.15 0.03 83 1011.5
20260507164513 54 63 2.0 6.0 0.02 0.15 0.03 84 1011.7
20260507163021 54 75 2.0 5.0 0.00 0.13 0.01 82 1012.0
20260507161523 53 151 2.0 6.0 0.00 0.13 0.01 84 1011.9
20260507160027 53 89 3.0 6.0 0.00 0.13 0.01 85 1012.2
20260507154512 52 99 1.0 2.0 0.00 0.13 0.01 85 1012.4
20260507153013 52 94 1.0 3.0 0.00 0.13 0.01 85 1012.7
20260507151522 52 51 0.0 5.0 0.00 0.13 0.01 84 1012.7
20260507150027 52 304 2.0 6.0 0.00 0.13 0.01 82 1012.4
20260507144532 52 309 1.0 2.0 0.00 0.13 0.01 83 1012.5
20260507143013 52 53 1.0 5.0 0.00 0.13 0.01 82 1012.7
20260507141518 52 70 1.0 3.0 0.00 0.13 0.01 83 1013.1
20260507140029 52 342 1.0 2.0 0.00 0.13 0.01 82 1013.0
20260507134527 52 304 2.0 6.0 0.00 0.13 0.01 82 1013.1
20260507133027 52 299 1.0 6.0 0.00 0.13 0.01 82 1013.2
20260507131516 52 300 3.0 5.0 0.00 0.13 0.01 82 1013.2
20260507130018 52 263 4.0 7.0 0.00 0.13 0.01 84 1013.2
20260507124504 52 279 1.0 2.0 0.00 0.13 0.01 84 1013.2
20260507123011 52 278 0.0 0.0 0.00 0.14 0.01 85 1013.0
20260507121512 52 287 0.0 0.0 0.00 0.16 0.01 85 1013.2
20260507120017 52 78 0.0 0.0 0.00 0.16 0.01 86 1012.9
20260507114518 52 78 0.0 0.0 0.00 0.16 0.01 86 1012.9
20260507113009 51 302 0.0 1.0 0.00 0.17 0.01 85 1012.8
20260507111509 51 302 1.0 3.0 0.00 0.17 0.01 85 1012.5
20260507110011 51 102 1.0 2.0 0.00 0.17 0.01 85 1012.5
20260507104517 51 308 0.0 0.0 0.00 0.17 0.01 83 1012.3
20260507103022 51 304 1.0 2.0 0.00 0.17 0.01 84 1012.2
20260507101513 52 309 1.0 2.0 0.00 0.17 0.01 85 1012.0
20260507100008 52 290 2.0 5.0 0.00 0.17 0.01 85 1012.1
20260507094513 52 320 2.0 6.0 0.00 0.17 0.01 85 1012.0
20260507093019 52 338 1.0 5.0 0.00 0.17 0.01 84 1012.1
20260507091531 52 313 1.0 3.0 0.00 0.17 0.01 85 1011.8
20260507090035 52 309 2.0 7.0 0.00 0.17 0.01 85 1011.8
20260507084510 52 314 1.0 5.0 0.01 0.17 0.01 84 1011.8
20260507083016 53 303 1.0 3.0 0.01 0.17 0.01 83 1011.6
20260507081522 53 310 1.0 5.0 0.01 0.17 0.01 83 1011.5
20260507080026 54 304 1.0 8.0 0.01 0.17 0.01 82 1011.6
20260507074526 54 316 1.0 4.0 0.00 0.16 0.00 81 1011.7
20260507073012 55 309 2.0 6.0 0.00 0.16 0.00 80 1011.5
20260507071518 55 315 2.0 5.0 0.00 0.16 0.00 79 1011.3
20260507070029 55 297 1.0 3.0 0.00 0.16 0.00 78 1011.1
20260507064527 56 287 1.0 7.0 0.00 0.16 0.00 79 1011.0
20260507063028 57 321 1.0 8.0 0.00 0.16 0.00 77 1011.1
20260507061512 58 266 1.0 2.0 0.00 0.16 0.00 74 1011.2
20260507060019 58 332 2.0 7.0 0.00 0.16 0.00 75 1011.1
20260507054530 60 74 1.0 2.0 0.00 0.16 0.00 71 1011.2
20260507053026 60 269 2.0 2.0 0.00 0.16 0.00 71 1011.5
20260507051529 60 269 0.0 2.0 0.00 0.16 0.00 73 1011.1
20260507050033 60 252 2.0 2.0 0.00 0.16 0.00 74 1010.8
20260507044522 61 128 0.0 6.0 0.01 0.16 0.00 77 1010.3
20260507043025 61 58 5.0 11.0 0.11 0.16 0.00 79 1009.9
20260507041527 61 321 0.0 0.0 0.11 0.16 0.00 82 1010.8
20260507040015 62 305 2.0 3.0 0.11 0.16 0.00 83 1011.1
20260507034503 63 243 3.0 6.0 0.10 0.15 0.15 84 1011.4
20260507033003 64 212 0.0 2.0 0.00 0.05 0.05 83 1011.3
20260507031510 64 238 0.0 4.0 0.01 0.05 0.05 82 1011.1
20260507030010 65 204 1.0 3.0 0.01 0.05 0.05 82 1011.0
20260507024516 65 224 1.0 4.0 0.01 0.05 0.05 83 1010.8
20260507023003 66 197 2.0 6.0 0.01 0.05 0.05 82 1010.8
20260507021506 66 207 0.0 2.0 0.00 0.04 0.04 81 1010.4
20260507020006 67 210 1.0 3.0 0.00 0.04 0.04 81 1010.6
20260507014517 67 98 0.0 0.0 0.00 0.04 0.04 79 1010.1
20260507013037 67 98 0.0 0.0 0.00 0.04 0.04 78 1009.9
20260507011522 68 207 0.0 0.0 0.00 0.04 0.04 77 1010.0
20260507010010 68 207 0.0 3.0 0.00 0.04 0.04 76 1010.4
20260507004507 68 211 2.0 4.0 0.00 0.04 0.04 76 1010.6
20260507003012 68 165 2.0 4.0 0.00 0.04 0.04 76 1010.4
20260507001521 69 215 1.0 2.0 0.00 0.04 0.04 76 1010.2
20260507000026 69 195 0.0 6.0 0.00 0.04 0.04 75 1010.1
20260506234506 70 256 0.0 3.0 0.00 0.04 0.04 73 1010.0
20260506233009 71 204 0.0 4.0 0.00 0.04 0.04 71 1009.8